Location: Newark
(48.1500°N, 13.1167°E)
Time: 15:18:07
(UTC+00:00)

ISS - Pass Details

Date: 19 September 2021
Orbit: 417 x 423 km, 51.6° (Epoch: 28 October)

Event Time Altitude Azimuth Distance (km) Brightness Sun altitude
Rises 17:58:05 0° 224° (SW) 2,352 0.5 -8.5°
Reaches altitude 10° 18:00:14 10° 217° (SW) 1,493 -0.6 -8.9°
Maximum altitude 18:03:24 39° 146° (SSE) 641 -3.2 -9.4°
Enters shadow 18:06:10 13° 79° (E) 1,353 -1.7 -9.9°
